OPS 7613 (P/L 4)

导读 | 豆包AI

OPS 7613 (P/L 4)是美国于1969年9月30日08:00发射的军用侦察卫星,隶属于美国国家侦察局(NRO)项目,属于锁眼(KH)系列光学成像卫星组网任务。该卫星运行在近地轨道,倾角约70度,轨道周期约103分钟,主要承担冷战时期军事战略侦察任务,为美军提供全球区域情报监测,是美国早期空间侦察体系的重要组成部分,现已退役。

Basic Information
目录编号:
4237
目录名称:
OPS 7613 (P/L 4)
国际标识:
1969-082E
轨道中心:
EARTH
卫星名称:
OPS 7613 (P/L 4)
卫星全名:
--
卫星状态:
在轨 (已飞行20620 天)
发射日期:
1969-09-30 UTC
国别 :
美国 (US)
星等 :
--
Orbit Information
数据来源 国际轨道数据
星历时间: 2026-03-15T06:50:44+0800
13小时前
查看轨道信息
半长轴: 7285.886km
偏心率: 0.0023165
轨道倾角: 70.015°
近地点辐角 254.694°
升交点赤经 305.202°
平近点角 201.875°
近地点: 890.871km
远地点: 924.627km
周期: 103.153分钟
每日圈数: 13.959802
Detailed Information
使用方式:
暂无
2D Orbit Map
3D Orbit Map
Orbit Altitude Analysis Chart
Orbit Inclination Analysis Chart
Orbit Comprehensive Analysis Chart
View Comprehensive Chart